User: anonymous   Login
Location: Banios
(43.0451°N, 0.2335°E)
Time: 06:15:52
(UTC+00:00)
Language:

Cosmos 1825 Rocket - Orbit

View from above orbital plane
View from above orbital plane
View from above satellite
View from above satellite

Ground track
Ground track

The orbit data is extracted from the following two-line orbital elements,

1 17567U 87024B   21108.84786472  .00000090  00000-0  79605-5 0  9996
2 17567  82.5281 327.0062 0020267  45.1463 315.1394 14.83800517844306
Epoch (UTC): 18 April 2021 20:20:55
Eccentricity: 0.0020267
inclination: 82.5281°
perigee height: 603 km
apogee height: 631 km
right ascension of ascending node: 327.0062°
argument of perigee: 45.1463°
revolutions per day: 14.83800517
mean anomaly at epoch: 315.1394°
orbit number at epoch: 84430

The dashed part of the orbit path shows where the satellite is in the earth's shadow,  

DLR